This is the latest recevied weather packets stored in our database for station/object K4AMF. If no packets are shown the sender has not sent any weather packets the latest 10 day(s).
| Time | Temp. | Humidity | Pressure | Rain* | Wind** | Luminosity | Snow |
|---|---|---|---|---|---|---|---|
| 1777765958 | 17.22° C | 93% | 1013.2 hPa | 0 mm | - | 1 W/m² | - |
| 1777765653 | 17.22° C | 93% | 1013 hPa | 0 mm | - | 3 W/m² | - |
| 1777765351 | 17.22° C | 92% | 1012.6 hPa | 0 mm | - | 7 W/m² | - |
| 1777765047 | 17.22° C | 92% | 1012.7 hPa | 0 mm | - | 6 W/m² | - |
| 1777764743 | 17.78° C | 92% | 1012.9 hPa | 0 mm | - | 6 W/m² | - |
| 1777764439 | 17.78° C | 92% | 1012.9 hPa | 0 mm | - | 6 W/m² | - |
| 1777764136 | 17.78° C | 91% | 1012.5 hPa | 0 mm | - | 5 W/m² | - |
| 1777763833 | 17.78° C | 91% | 1012.5 hPa | 0 mm | - | 7 W/m² | - |
| 1777763531 | 17.78° C | 91% | 1012.4 hPa | 0 mm | - | 10 W/m² | - |
| 1777763229 | 17.78° C | 92% | 1012.2 hPa | 0 mm | - | 18 W/m² | - |
| 1777762927 | 18.33° C | 92% | 1012.1 hPa | 0 mm | - | 28 W/m² | - |
| 1777762622 | 18.33° C | 93% | 1012.2 hPa | 0 mm | - | 25 W/m² | - |
| 1777762320 | 18.33° C | 93% | 1012 hPa | 0 mm | - | 26 W/m² | - |
| 1777762016 | 18.33° C | 92% | 1012.2 hPa | 0 mm | - | 25 W/m² | - |
| 1777761713 | 18.89° C | 92% | 1011.8 hPa | 0 mm | - | 38 W/m² | - |
| 1777761410 | 18.89° C | 92% | 1011.7 hPa | 0 mm | - | 41 W/m² | - |
| 1777761109 | 18.89° C | 91% | 1011.5 hPa | 0 mm | - | 39 W/m² | - |
| 1777760806 | 19.44° C | 90% | 1011.4 hPa | 0 mm | - | 33 W/m² | - |
| 1777760502 | 21.11° C | 86% | 1011.2 hPa | 0 mm | - | 28 W/m² | - |
| 1777760198 | 21.67° C | 85% | 1010.7 hPa | 0 mm | - | 61 W/m² | - |
| 1777759895 | 21.67° C | 85% | 1010.6 hPa | 0 mm | - | 108 W/m² | - |
| 1777759592 | 21.67° C | 84% | 1010.4 hPa | 0 mm | - | 183 W/m² | - |
| 1777759288 | 21.11° C | 85% | 1010.4 hPa | 0 mm | - | 193 W/m² | - |
| 1777758986 | 21.11° C | 85% | 1010.4 hPa | 0 mm | - | 279 W/m² | - |
| 1777758682 | 21.67° C | 86% | 1010.1 hPa | 0 mm | - | 185 W/m² | - |
* Rain latest hour (hover to see other rain measurements)
** Current wind speed in m/s (hover to see current wind gust speed)